Regional Weather Roundup
Issued by NWS

Home | Current Version | Previous Version | Graphics & Text | Print | Product List | Glossary On
Versions: 1 2 3 4 5 6 7 8 9 10 11 12 13 14 15 16 17 18 19 20 21 22 23 24 25 26 27 28 29 30 31 32 33 34 35 36 37 38 39 40 41 42 43 44 45 46 47 48 49 50
000
ASUS43 KFSD 020610
RWRSD

WEATHER ROUNDUP FOR SOUTH DAKOTA
NATIONAL WEATHER SERVICE SIOUX FALLS SD
100 AM CDT SAT AUG 02 2014

NOTE: "FAIR" INDICATES FEW OR NO CLOUDS BELOW 12,000 FEET WITH NO
SIGNIFICANT WEATHER AND/OR OBSTRUCTIONS TO VISIBILITY.


SDZ001>005-009-010-012>017-020700-
NORTHWEST AND NORTH CENTRAL SOUTH DAKOTA

CITY           SKY/WX    TMP DP  RH WIND       PRES   REMARKS
BUFFALO          N/A     66  58  75 NE18      30.06R
FAITH            N/A     67  54  63 SE9       30.07R
MOBRIDGE       CLOUDY    64  59  83 SE14      30.05F
$$

SDZ012>016-024>037-041>051-057-063-072>074-020700-
SOUTHWEST AND SOUTH CENTRAL SOUTH DAKOTA

CITY           SKY/WX    TMP DP  RH WIND       PRES   REMARKS
RAPID CTY ARPT CLEAR     64  49  57 NW8       30.08R
PIERRE         PTCLDY    67  60  78 S9        30.03S
CUSTER         CLEAR     58  42  55 NW5       30.26R
ELLSWORTH AFB  PTCLDY    65  49  55 NW10      30.08R
PHILIP         CLEAR     68  54  60 E5        30.05S
PINE RIDGE     PTCLDY    61  54  77 E5        30.10S
WINNER         FAIR      68  58  70 S8        30.09S
$$

SDZ004>011-016>023-039-040-020700-
NORTHEAST SOUTH DAKOTA

CITY           SKY/WX    TMP DP  RH WIND       PRES   REMARKS
ABERDEEN       MOCLDY    63  58  83 SE7       30.09R
WATERTOWN      CLEAR     66  59  78 SE5       30.12R
SISSETON         N/A     63  62  97 CALM      30.09R
$$

SDZ017-020-022-023-036>040-048>070-020700-
SOUTHEAST SOUTH DAKOTA

CITY           SKY/WX    TMP DP  RH WIND       PRES   REMARKS
SIOUX FALLS    MOCLDY    64  59  83 CALM      30.12S
HURON          CLOUDY    69  58  67 SE6       30.07F
CHAMBERLAIN    CLOUDY    65  61  87 SE16G22   30.05F
MITCHELL       CLOUDY    70  58  65 S8        30.11F
YANKTON        CLOUDY    64  61  88 CALM      30.13R
$$

ABBREVIATIONS USED IN REMARKS
   TC - TEMPERATURE IN CELSIUS
  WCI - WIND CHILL INDEX
   HX - HEAT INDEX
  VSB - VISIBILITY



USA.gov is the U.S. government's official web portal to all federal, state and local government web resources and services.